Regional Weather Roundup
Issued by NWS Upton, NY

Current Version | Previous Version | Graphics & Text | Print | Product List | Glossary Off
Versions: 1 2 3 4 5 6 7 8 9 10 11 12 13 14 15 16 17 18 19 20 21 22 23 24 25 26 27 28 29 30 31 32 33 34 35 36 37 38 39 40 41 42 43 44 45 46 47 48 49 50

000
ASUS41 KOKX 222105
RWROKX
REGIONAL WEATHER ROUNDUP
NATIONAL WEATHER SERVICE NEW YORK NY
500 PM EDT MON SEP 22 2014

NOTE: "FAIR" INDICATES FEW OR NO CLOUDS BELOW 12,000 FEET WITH NO
SIGNIFICANT WEATHER AND/OR OBSTRUCTIONS TO VISIBILITY.

NYZ071-072-176-178-NJZ106-104-222200-
NEW YORK CITY METRO AREA


CITY           SKY/WX    TMP DP  RH WIND       PRES   REMARKS
CENTRAL PARK   SUNNY     67  43  41 W10G16    29.98R
LAGUARDIA APRT MOSUNNY   69  45  41 NW15G26   29.94R
KENNEDY INTL   MOSUNNY   71  44  37 W18G24    29.95R
NEWARK/LIBERTY MOSUNNY   68  43  40 NW18G26   29.96R
BRNX BOT. GARD   N/A     68  43  40 NW8       29.96R
TETERBORO      SUNNY     67  42  40 W18G26    29.95R
$$

NYZ177-179-078>081-222200-
LONG ISLAND NEW YORK

CITY           SKY/WX    TMP DP  RH WIND       PRES   REMARKS
FARMINGDALE    SUNNY     70  46  42 NW13      29.93R
ISLIP          MOSUNNY   69  46  43 NW20G26   29.91R
SHIRLEY        SUNNY     70  47  43 W15       29.92R
WESTHAMPTON    MOSUNNY   71  48  43 W15G25    29.91R
MONTAUK POINT    N/A     70  52  52 W8        29.89R
$$

NYZ052-065-067-222200-
HUDSON VALLEY

CITY           SKY/WX    TMP DP  RH WIND       PRES   REMARKS
WHITE PLAINS   MOSUNNY   65  43  44 NW16      29.94R
NEWBURGH       MOSUNNY   63  45  51 NW17G31   29.97R
MONTGOMERY     SUNNY     61  39  44 NW14G23   29.99R
POUGHKEEPSIE   SUNNY     65  40  39 NW15G22   29.95R
ALBANY         PTSUNNY   56  39  53 W20G31    30.00R
$$

NJZ001-105-106-008-010-013-015-019>022-104-222200-
NEW JERSEY

CITY           SKY/WX    TMP DP  RH WIND       PRES   REMARKS
NEWARK/LIBERTY MOSUNNY   68  43  40 NW18G26   29.96R
TETERBORO      SUNNY     67  42  40 W18G26    29.95R
CALDWELL       SUNNY     65  40  39 NW15G23   29.98R
MORRISTOWN     MOSUNNY   66  45  45 NW7G20    29.97R
SOMERVILLE     SUNNY     69  44  40 NW14G21   29.96R
LINDEN         FAIR      72  46  39 NW13G21   29.98R
SUSSEX         SUNNY     63  41  44 W15G22    30.00R
ANDOVER          N/A     62  41  46 N9G17     30.00R
TRENTON        SUNNY     68  42  38 NW14G20   29.98R
MILLVILLE      PTSUNNY   70  48  45 NW10      29.99R
ATLANTIC CITY  PTSUNNY   70  50  49 NW13      29.98R
WRIGHTSTOWN    PTSUNNY   69  47  45 NW7G21    29.96R
TOMS RIVER     CLOUDY    68  48  49 NW10      29.98R
BELMAR         PTSUNNY   70  46  43 NW12G20   29.97R
$$

PAZ047>061-062-071-222200-
EASTERN PENNSYLVANIA

CITY           SKY/WX    TMP DP  RH WIND       PRES   REMARKS
PHILADELPHIA   PTSUNNY   70  45  40 NW16      30.00R
ALLENTOWN      MOSUNNY   65  42  43 NW12G18   30.01R
SCRANTON       MOSUNNY   60  40  47 NW14G21   30.04R
$$

CTZ002-004>006-009-010-012-RIZ004-006-007-MAZ004-011-015-222200-
SOUTHERN NEW ENGLAND
 IN CT

CITY           SKY/WX    TMP DP  RH WIND       PRES   REMARKS
BRADLEY INTL   MOSUNNY   67  43  41 NW14G25   29.90R
HARTFORD       MOSUNNY   68  45  43 VRB7G20   29.89R
DANBURY        SUNNY     63  43  48 NW9G21    29.95R
WTRBRY/OXFORD  NOT AVBL
BRIDGEPORT     SUNNY     70  46  42 W14G21    29.91R
MERIDEN        MOSUNNY   69  44  40 NW10      29.90R
NEW HAVEN      SUNNY     71  48  43 W9G17     29.90R
CHESTER        FAIR      68  46  45 NW8       29.89R
GROTON         SUNNY     69  48  47 NW12G22   29.87R
WILLIMANTIC    SUNNY     68  45  43 NW8G20    29.88R

 IN RI

CITY           SKY/WX    TMP DP  RH WIND       PRES   REMARKS
PROVIDENCE     MOSUNNY   69  44  40 NW17G23   29.88R
BLOCK ISLAND   SUNNY     72  52  49 W12       29.88R
WESTERLY       SUNNY     71  47  42 VRB7      29.87R

 IN MA

CITY           SKY/WX    TMP DP  RH WIND       PRES   REMARKS
BOSTON         MOSUNNY   68  41  37 W22G29    29.83R
WORCESTER      SUNNY     60  42  51 W20G28    29.88R
WESTFIELD      SUNNY     64  42  44 NW20G29   29.90R
PROVINCETOWN   SUNNY     68  54  60 W13       29.82R
NANTUCKET      SUNNY     69  57  65 W16G26    29.85R
$$

ANZ330-335-338-340-345-350-353-355-222200-
COASTAL MARINE OBSERVATIONS


STATION/POSITION TIME  SKY/WX   TEMP    WIND        PRES    VSBY  WAVE
                                AIR SEA DIR/SP/G                  HT/PER
                 (UTC)          (F)     (DEG/KT/KT) (MB)    (MI)  (FT/S)
NY HARB ENTRANCE 2100            67 70  300/ 17/ 21 1014.0          4/10
4S FIRE IS       2100               70                N/A           6/11
20S FIRE ISLAND  2100            68 68  300/ 17/ 21 1013.4          6/10
23SW MTP         2100                                 N/A           8/10
HUDSON CANYON    2100            69 71  300/ 12/ 16 1013.8          7/10
EXECUTION ROCKS  2100            68 70  310/ 16/ 23   N/A
WESTERN LI SOUND 2100            67     300/ 16/ 19   N/A           2/ 3
CENTRAL LI SOUND 2000            69 70  290/ 14/ 17   N/A           3/ 4
EASTERN LI SOUND 2000            70 68  300/ 14/ 17   N/A
ROBBINS REEF     2100            66     300/ 19/ 24 1013.0
$$


>>>>>>>>>>>>>>>>>>>>>>>>>>>> KEY <<<<<<<<<<<<<<<<<<<<<<<<<<<
>                                                          <
>     SKY/WX - SKY CONDITION/PRESENT WEATHER               <
>     TMP    - TEMPERATURE IN FAHRENHEIT                   <
>     DP     - DEWPOINT IN FAHRENHEIT                      <
>     RH     - RELATIVE HUMIDITY IN PERCENT                <
>     WIND   - DIRECTION AND SPEED IN MPH                  <
>     PRES   - MEAN SEA LEVEL PRESSURE IN INCHES OF HG     <
>     WCI    - WIND CHILL INDEX                            <
>     VSB    - VISIBILITY IN MILES                         <
>     HX     - HEAT INDEX                                  <
>     TC     - TEMPERATURE IN CELSIUS                      <
>     VRB    - VARIABLE WIND DIRECTION                     <
>                                                          <
>>>>>>>>>>>>>>>>>>>>>>>>>>>> KEY <<<<<<<<<<<<<<<<<<<<<<<<<<<




USA.gov is the U.S. government's official web portal to all federal, state and local government web resources and services.